TimeCST,TemperatureF,Dew PointF,Humidity,Sea Level PressureIn,VisibilityMPH,Wind Direction,Wind SpeedMPH,Gust SpeedMPH,PrecipitationIn,Events,Conditions,WindDirDegrees,DateUTC
12:52 AM,41.0,30.0,65,29.96,-9999.0,NNW,13.8,-,N/A,,Unknown,330,2012-11-25 06:52:00
1:52 AM,37.9,28.0,68,29.96,-9999.0,NNW,13.8,-,N/A,,Unknown,340,2012-11-25 07:52:00
2:52 AM,35.1,27.0,72,29.99,-9999.0,NNW,9.2,-,N/A,,Unknown,340,2012-11-25 08:52:00
3:52 AM,33.1,26.1,75,29.99,-9999.0,North,11.5,-,N/A,,Unknown,350,2012-11-25 09:52:00
4:52 AM,30.9,25.0,79,30.02,-9999.0,North,8.1,-,N/A,,Unknown,350,2012-11-25 10:52:00
5:52 AM,28.9,24.1,82,30.02,-9999.0,North,9.2,-,N/A,,Unknown,360,2012-11-25 11:52:00
6:52 AM,28.0,23.0,81,30.04,-9999.0,North,8.1,-,N/A,,Unknown,360,2012-11-25 12:52:00
7:52 AM,27.0,21.9,81,30.06,-9999.0,Calm,Calm,-,N/A,,Unknown,0,2012-11-25 13:52:00
8:52 AM,27.0,21.9,81,30.08,-9999.0,North,3.5,-,N/A,,Unknown,10,2012-11-25 14:52:00
9:52 AM,28.9,23.0,78,30.09,-9999.0,Calm,Calm,-,N/A,,Unknown,0,2012-11-25 15:52:00
10:52 AM,30.9,24.1,76,30.09,-9999.0,North,6.9,-,N/A,,Unknown,350,2012-11-25 16:52:00
11:52 AM,32.0,24.1,73,30.08,-9999.0,NW,5.8,-,N/A,,Unknown,320,2012-11-25 17:52:00
12:52 PM,34.0,24.1,67,30.07,-9999.0,West,6.9,-,N/A,,Unknown,270,2012-11-25 18:52:00
1:52 PM,35.1,24.1,64,30.05,-9999.0,West,5.8,-,N/A,,Unknown,260,2012-11-25 19:52:00
2:52 PM,36.0,25.0,64,30.06,-9999.0,NW,5.8,-,N/A,,Unknown,310,2012-11-25 20:52:00
3:52 PM,37.0,25.0,62,30.08,-9999.0,North,9.2,-,N/A,,Unknown,10,2012-11-25 21:52:00
4:52 PM,35.1,24.1,64,30.09,-9999.0,North,4.6,-,N/A,,Unknown,10,2012-11-25 22:52:00
5:52 PM,34.0,24.1,67,30.11,-9999.0,North,3.5,-,N/A,,Unknown,360,2012-11-25 23:52:00
6:52 PM,34.0,24.1,67,30.14,-9999.0,Calm,Calm,-,N/A,,Unknown,0,2012-11-26 00:52:00
7:52 PM,32.0,21.9,66,30.17,-9999.0,ENE,8.1,-,N/A,,Unknown,60,2012-11-26 01:52:00
8:52 PM,30.0,21.9,72,30.21,-9999.0,NE,3.5,-,N/A,,Unknown,50,2012-11-26 02:52:00
9:52 PM,30.0,21.9,72,30.23,-9999.0,NNE,10.4,-,N/A,,Unknown,20,2012-11-26 03:52:00
10:52 PM,27.0,17.1,66,30.26,-9999.0,NNE,12.7,-,N/A,,Unknown,30,2012-11-26 04:52:00
11:52 PM,26.1,16.0,66,30.28,-9999.0,NNE,10.4,-,N/A,,Unknown,30,2012-11-26 05:52:00